Miscellaneous Local Product
Issued by NWS North Platte, NE

Home | Current Version | Previous Version | Graphics & Text | Print | Product List | Glossary On
Versions: 1 2 3 4 5 6 7 8 9 10 11 12 13 14 15 16 17 18 19 20 21 22 23 24 25 26 27 28 29 30 31 32 33 34 35 36 37 38 39 40 41 42 43 44 45 46 47 48 49 50
000
AXUS43 KLBF 141510
MISLBF


WESTERN AND NORTH CENTRAL NEBRASKA HOURLY WEATHER ROUNDUP
NATIONAL WEATHER SERVICE NORTH PLATTE NE
900 AM CST THU DEC 14 2017

NOTE: "FAIR" INDICATES FEW OR NO CLOUDS BELOW 12,000 FEET WITH NO
SIGNIFICANT WEATHER AND/OR OBSTRUCTIONS TO VISIBILITY.

NOTE: STATIONS NOT REPORTING VARIABLES SUCH AS SKY/WEATHER OR
PRESSURE ARE PROVIDED BY RAWS AND APRS NETWORKS AND ARE NOT UNDER
NATIONAL WEATHER SERVICE QUALITY CONTROL.

...OBSERVATIONS IN AND NEAR THE EASTERN PANHANDLE OF NEBRASKA...

CITY           SKY/WX    TMP DP  RH WIND       PRES   REMARKS
PINE RIDGE     CLOUDY    34  27  75 N14G23    30.13R WCI  25
GORDON         CLOUDY    33  28  83 N17G23    30.09S WCI  22
CHADRON        MOCLDY    35  23  61 NW20G25   30.14R WCI  24
ALLIANCE       CLOUDY    36  22  56 NW32G43   30.10R WCI  23
SIDNEY         MOCLDY    30  23  75 NW8       30.14R WCI  22
CRESCENT LAKE    N/A     37  22  54 NW22G37     N/A  WCI  26
$$

...OBSERVATIONS IN NORTHERN NEBRASKA AND FAR SOUTHERN SOUTH DAKOTA...

CITY           SKY/WX    TMP DP  RH WIND       PRES   REMARKS
WINNER         LGT SNOW  35  33  92 NW12      30.05R FOG     WCI  27
VALENTINE      LGT SNOW  35  32  88 NW14      30.06R FOG     WCI  26
THEDFORD       CLOUDY    35  32  88 W10       30.07R WCI  27
AINSWORTH      LGT SNOW  33  33 100 NW10      30.04R VSB 1   WCI  25
O`NEILL        LGT SNOW  33  32  96 NW9       30.04R WCI  25
ORD            LGT RAIN  36  33  89 NW12      30.04R WCI  28
BROKEN BOW     FLURRIES  36  33  89 NW12G22   30.05S WCI  28
VALENTINE NWR    N/A     33  31  93 NW10        N/A  WCI  25
HALSEY           N/A     34  32  93 W7          N/A  WCI  28
BUTTE            N/A     29  27  93 CALM        N/A
CHAMBERS         N/A     34  30  85 CALM        N/A
EWING            N/A     32  28  83 NW5         N/A  WCI  27
$$

...OBSERVATIONS IN SOUTHWEST NEBRASKA AND FAR NORTHEAST COLORADO...

CITY           SKY/WX    TMP DP  RH WIND       PRES   REMARKS
WRAY           CLOUDY    34  28  80 MISG      30.16R
HOLYOKE        FAIR      37  27  65 NW14G21   30.14R WCI  29
IMPERIAL       CLOUDY    36  24  62 NW8       30.12R WCI  30
OGALLALA       CLOUDY    38  25  59 W12       30.10S WCI  30
NORTH PLATTE   CLOUDY    38  26  62 W9        30.09R WCI  31
MCCOOK         CLOUDY    38  28  67 W9        30.11F WCI  31
LEXINGTON      CLOUDY    38  30  72 NW10      30.09R WCI  31
STAPLETON        N/A     35  29  79 CALM        N/A
GOTHENBURG       N/A     37  27  68 NW6         N/A  WCI  32
CALLAWAY         N/A     35  32  90 NW9         N/A  WCI  28
$$

...OBSERVATIONS IN CENTRAL LINCOLN COUNTY AREA...

CITY           SKY/WX    TMP DP  RH WIND       PRES   REMARKS
N.P. AIRPORT   CLOUDY    38  26  62 W9        30.09R WCI  31
N.P. DOWNTOWN    N/A     36  27  68 CALM        N/A
N.P. SOUTHEAST   N/A     36  26  65 W3          N/A
N.P. HILLCREST   N/A     35  27  71 W6          N/A  WCI  30
$$

...SOME OBSERVATIONS FROM AROUND THE REGION...

CITY           SKY/WX    TMP DP  RH WIND       PRES   REMARKS
DENVER         CLOUDY    27  24  89 SW9       30.20S WCI  18
GRAND JUNCTION PTCLDY    35  23  61 NE6       30.24R WCI  30
LARAMIE        CLOUDY    23  19  85 NW23      30.17R WCI   7
CHEYENNE       CLOUDY    29  24  82 NW15G23   30.15S WCI  18
CASPER         CLOUDY    24  20  84 NW5       30.26R WCI  18
BISMARCK       CLOUDY    33  28  81 N15G28    30.08R WCI  23
RAPID CITY     CLOUDY    34  24  67 NW30G39   30.13R WCI  20
PIERRE         FLURRIES  34  33  96 NW20      30.05R WCI  23
SIOUX FALLS    CLOUDY    30  27  88 S5        30.01S WCI  25
OMAHA          CLOUDY    34  27  75 CALM      30.07R
GRAND ISLAND   MOCLDY    31  26  82 W8        30.08R WCI  23
SCOTTSBLUFF    CLOUDY    38  24  57 NW20G32   30.15R WCI  28
KANSAS CITY    CLOUDY    36  24  62 NW3       30.08R
HILL CITY      PTCLDY    39  29  67 NW13      30.13S WCI  31
WICHITA        MOSUNNY   36  27  69 NW8       30.14R WCI  30
DODGE CITY     MOSUNNY   38  21  50 NW10      30.16S WCI  31
OKLAHOMA CITY  PTSUNNY   42  28  57 N9        30.14R
DALLAS         MOSUNNY   51  30  44 N21G28    30.02R
AMARILLO       SUNNY     32  20  61 N9        30.19R WCI  24
$$




USA.gov is the U.S. government's official web portal to all federal, state and local government web resources and services.